Regional Weather Roundup
Issued by NWS

Home | Current Version | Previous Version | Text Only | Print | Product List | Glossary Off
Versions: 1 2 3 4 5 6 7 8 9 10 11 12 13 14 15 16 17 18 19 20 21 22 23 24 25 26 27 28 29 30 31 32 33 34 35 36 37 38 39 40 41 42 43 44 45 46 47 48 49 50

573
ASUS43 KDTX 231010
RWRMI
MICHIGAN HOURLY REGIONAL WEATHER ROUNDUP
NATIONAL WEATHER SERVICE DETROIT/PONTIAC MI
600 AM EDT THU MAR 23 2017

NOTE: "FAIR" INDICATES FEW OR NO CLOUDS BELOW 12,000 FEET WITH NO
SIGNIFICANT WEATHER AND/OR OBSTRUCTION TO VISIBILITY.

MIZ047>049-052>055-059>063-066>070-074>076-081>083-231100-
SOUTHEAST LOWER MICHIGAN

CITY           SKY/WX    TMP DP  RH WIND       PRES   REMARKS
ADRIAN         PTCLDY    21  16  81 SE3       30.51F
ALMA           PTCLDY    25  20  82 CALM      30.50R
ANN ARBOR      CLEAR     20  15  81 CALM      30.50F
BAD AXE        CLOUDY    21  17  84 S3        30.52R
CARO           CLOUDY    17  15  90 CALM      30.51R
DETROIT CITY   CLEAR     22  14  71 SE3       30.53F
DETROIT        PTCLDY    24  16  71 E5        30.53F WCI  18
FLINT          CLEAR     20  15  81 S7        30.50S WCI  11
GROSSE ILE     CLEAR     25  17  73 E5        30.52F WCI  19
HILLSDALE      CLEAR     21  14  73 SE6       30.47R WCI  14
HOWELL         CLEAR     20  15  81 SE3       30.49R

CITY           SKY/WX    TMP DP  RH WIND       PRES   REMARKS
JACKSON        CLEAR     21  14  74 SE6       30.49S WCI  13
LAMBERTVILLE   CLEAR     21  17  84 CALM      30.52S
LANSING        CLEAR     24  15  68 S5        30.50R WCI  18
LAPEER         FAIR      17  15  94 CALM      30.51S
MASON          CLEAR     23  19  84 SE5       30.49R WCI  17
MONROE         CLEAR     26  19  75 SE5       30.51S WCI  20
MT. CLEMENS    CLEAR     19  17  91 CALM      30.51F
PONTIAC        PTCLDY    22  14  71 CALM      30.49F
PORT HOPE        N/A     20  17  88 S3        30.51S
PORT HURON     CLEAR     18  12  79 CALM      30.54S
TRI CITIES     PTCLDY    24  18  77 S8        30.51R WCI  15
MIDLAND        FAIR      23  15  71 CALM      30.50S
TROY           CLEAR     23  14  69 CALM      30.54S
SAGINAW HB     PTCLDY    25  18  74 S5        30.51S WCI  19
$$
MIZ043>046-050>051-056>058-064>065-071>073-077>080-231100-
SOUTHWEST LOWER MICHIGAN

CITY           SKY/WX    TMP DP  RH WIND       PRES   REMARKS
BATTLE CREEK   CLEAR     24  15  68 S7        30.48R WCI  16
BENTON HARBOR  CLOUDY    26  16  65 SE6       30.46S WCI  19
BIG RAPIDS     CLOUDY    18  15  88 CALM      30.46S
COLDWATER      CLEAR     24  15  70 SE5       30.48S WCI  18
FREMONT        FAIR      25  13  61 SE6       30.46S WCI  18
HOLLAND        CLOUDY    25  16  68 SE8       30.47S WCI  16
GRAND RAPIDS   CLOUDY    23  14  68 S7        30.48R WCI  15
IONIA          FAIR      26  17  69 S8        30.49R WCI  17
KALAMAZOO      CLOUDY    26  14  60 SE6       30.48S WCI  19
LUDINGTON      CLOUDY    24  17  77 SE5       30.45S WCI  18
MARSHALL       CLEAR     23  15  71 SE6       30.48S WCI  16
MOUNT PLEASANT CLEAR     20  15  81 CALM      30.49R
MUSKEGON       CLOUDY    23  15  71 SE8       30.47S WCI  14
SOUTH HAVEN    CLOUDY    25  18  73 SE5       30.46F WCI  19
$$
MIZ016>042-231100-
NORTHERN LOWER MICHIGAN

CITY           SKY/WX    TMP DP  RH WIND       PRES   REMARKS
ALPENA         CLOUDY    14  11  87 CALM      30.50S
BEAVER ISLAND  PTCLDY    18  15  91 CALM      30.45S
BELLAIRE       MOCLDY    19  15  84 CALM      30.48S
CADILLAC       CLOUDY    14  10  84 CALM      30.42S
CHARLEVOIX     CLOUDY    21  13  69 SE5       30.49S WCI  15
FRANKFORT      PTCLDY    22  13  67 CALM      30.46S
GAYLORD        CLOUDY    22  10  60 S5        30.43S WCI  16
GRAYLING       PTCLDY    16  10  79 CALM      30.46S
HARBOR SPRINGS CLOUDY    17  13  85 CALM      30.46S
HOUGHTON LAKE  CLOUDY    20  15  81 E3        30.46S
MANISTEE       CLOUDY    17  14  88 E5        30.46R WCI  10
OSCODA         PTCLDY    13   8  80 W3        30.51R
PELLSTON       MOCLDY    14  10  84 CALM      30.47S
ROGERS CITY    CLOUDY    20  15  80 S5        30.50S WCI  14
TRAVERSE CITY  CLOUDY    23  12  62 CALM      30.46S
$$
MIZ007>008-015-231100-
EASTERN UPPER MICHIGAN

CITY           SKY/WX    TMP DP  RH WIND       PRES   REMARKS
KINROSS        CLOUDY    14   9  80 E3        30.47S
MACKINAC ISLAN CLOUDY    21  14  74 SE6       30.46S WCI  13
NEWBERRY       CLOUDY    22  16  79 S3        30.43S
S. S. MARIE    CLOUDY    14   9  80 NE3       30.48R
MUNISING         N/A     23  15  71 S3        30.43R
$$
MIZ004>006-011>014-085-231100-
CENTRAL UPPER MICHIGAN

CITY           SKY/WX    TMP DP  RH WIND       PRES   REMARKS
MANISTIQUE     CLOUDY    27  21  80 S7        30.43F WCI  19
ESCANABA       PTCLDY    22  19  89 CALM      30.44S
MENOMINEE        N/A    N/A N/A N/A MISG        N/A
SAWYER-GWINN   MOCLDY    22  17  81 S9        30.37F WCI  12
$$
MIZ001>003-009>011-084-231100-
WESTERN UPPER MICHIGAN

CITY           SKY/WX    TMP DP  RH WIND       PRES   REMARKS
IRON MOUNTAIN  CLOUDY    24  14  65 S5        30.36F WCI  18
HOUGHTON       CLOUDY    26  14  60 S6        30.31F WCI  19
COPPER HARBOR    N/A     29  17  61 SW7       30.33F WCI  22
IRONWOOD       LGT SNOW  29  19  66 S8        30.29S WCI  21
$$

ABBREVIATIONS USED IN REMARKS
   TC - TEMPERATURE IN CELSIUS
  WCI - WIND CHILL INDEX
   HX - HEAT INDEX
  VSB - VISIBILITY





USA.gov is the U.S. government's official web portal to all federal, state and local government web resources and services.